DMSP 5D-2 F13 DEB, 40434

Orbit data source: Space-Track

DMSP 5D-2 F13 DEB, 40434 is space debris in SSO originally from a launch on Fri, 24 Mar 1995 UTC launched from the Air Force Western Test Range (AFWTR). Debris objects in space refer to the collection of defunct objects orbiting the Earth. Examples of debris include non-operational satellites, rocket bodies, and fragments generated from explosions, collisions, or faulty payload assembly.

Loading next visibility...
Identifier
40434, 1995-015AL
Orbit
SSO
Last TLE update
20 hours ago
Origin
Manufacturer
Unknown
Mission
Spacecraft
Bus & Motor
Unknown
Mass
Unknown
Launch date (UTC)
1995-03-24 (30 years ago)
Launch vehicle
Unknown
Launch site
Air Force Western Test Range (AFWTR)
Object type
Payload
Rocket body
Debris
Shape & HBR
Unknown
Radar Cross Section
Small (<0.1 m²)

Expand to show TLE details & history

TLE from 20 hours ago
0 DMSP 5D-2 F13 DEB
1 40434U 95015AL  25128.41311014  .00002050  00000-0  98547-3 0  9991
2 40434  99.0823 105.2710 0173180 277.8955  80.2591 14.12469947522187
Epoch: 2025-05-08T09:54Z
Definitive object data (Epoch: 2025-05-08T09:54:52.716Z)
Latitude
-0.00005°
Longitude
90.06739°
Altitude
834.754 km
Speed
7.445 km/s
True Right ascension
07h 01m 05s
True Declination
0° 00' 00"
Sunlit
Object was in daylight at TLE epoch
Visualization TLE readout
Latitude
-68.11787°
Longitude
114.23655°
Altitude
755.241 km
Speed
7.539 km/s
Apparent Right ascension
04h 08m 46s
Apparent Declination
-63° 43' 03"
Sunlit
Object is in daylight
Visualization observer readout
Local Sidereal Time
14:08:18
Azimuth
206.692° SW
Elevation
-60.354°
Doppler factor
1
Orbital elements
Apogee altitude
973.262 km
Perigee altitude
722.973 km
Semi-major axis
7,226.254 km
Eccentricity
0.017318
Inclination
99.0823°
RAAN
105.271°
Arg. of periapsis
277.8955°
True anomaly
82.22179°
Mean anomaly
80.2591°
Eccentric anomaly
81.23977°
Mean motion
3.53324 °/min
BSTAR
0.00098547
Orbital period
101.89 mins
Loading maneuver chart data...
Loading SW <> Apogee altitude chart data...

DMSP 5D-2 F13 DEB Visibility forecast

Observer location: undefined°, undefined°

Span
Click to sort rows by Start time (UTC) header in descending order
Start Az.
Max El. time (UTC)
Max El. Az.
Max El.
End time (UTC)
End Az.
9 mins2025-05-09 10:19:32.343Z41.242° NE2025-05-09 10:23:32.343Z87.331° E24.525°2025-05-09 10:28:32.343Z149.732° SSE
9 mins2025-05-09 12:00:32.343Z355.128° N2025-05-09 12:04:32.343Z296.777° NW34.92°2025-05-09 12:09:32.343Z224.026° SW
9 mins2025-05-09 21:45:32.343Z131.531° SE2025-05-09 21:49:32.343Z57.81° ENE35.466°2025-05-09 21:54:32.343Z359.024° N
8 mins2025-05-09 23:26:32.343Z220.308° SW2025-05-09 23:29:32.343Z258.829° W23.296°2025-05-09 23:34:32.343Z319.148° NNW
|